Weather History for KMCI - February, 2014

Change the Weather History Date:

Saturday, February 22, 2014

  Actual Average Record
Temperature  
Mean Temperature 41 °F 36 °F  
Max Temperature 54 °F 46 °F 73 °F (1982)
Min Temperature 28 °F 26 °F 3 °F (1910)
Degree Days  
Heating Degree Days 24 29  
Month to date heating degree days 889 715  
Since 1 July heating degree days 4333 3879  
Cooling Degree Days 0 0  
Month to date cooling degree days 0 0  
Year to date cooling degree days 0 0  
Moisture  
Dew Point 25 °F    
Average Humidity 55    
Maximum Humidity 69    
Minimum Humidity 41    
Precipitation  
Precipitation 0.00 in 0.05 in 1.03 in (1915)
Month to date precipitation 1.36 1.11  
Year to date precipitation 1.75 2.18  
Snow  
Snow 0.00 in 0.20 in 3.60 in (1994)
Month to date snowfall 11.3 4.5  
Since 1 July snowfall 22.6 15.3  
Snow Depth 0.00 in    
Sea Level Pressure  
Sea Level Pressure 29.97 in    
Wind  
Wind Speed 10 mph (NE)    
Max Wind Speed 21 mph    
Max Gust Speed 25 mph    
Visibility 10 miles    
Events      
T = Trace of Precipitation, MM = Missing Value Source: NWS Daily Summary

Daily Weather History Graph

Daily Weather History Graph

Search for Another Location

Airport or City:

Trip Planner

Search our weather history database for the weather conditions in past years. The results will help you decide how hot, cold, wet, or windy it might be!

Date:

Astronomy

Feb. 22, 2014 Rise Set
Actual Time 7:01 AM CST 6:03 PM CST
Civil Twilight 6:34 AM CST 6:30 PM CST
Nautical Twilight 6:03 AM CST 7:02 PM CST
Astronomical Twilight 5:32 AM CST 7:33 PM CST
Moon 12:56 AM CST (2/22) 11:16 AM CST (2/22)
Length of Visible Light 11h 56m
Length of Day
11h 02m
Waning Gibbous, 50% of the Moon is Illuminated
Feb 22
Waning Gibbous
Mar 1
New
Mar 8
First Quarter
Mar 16
Full
Mar 23
Last Quarter

Hourly Weather History & Observations

Time (CST) Temp. Windchill Dew Point Humidity Pressure Visibility Wind Dir Wind Speed Gust Speed Precip Events Conditions
12:53 AM 42.1 °F 38.4 °F 21.0 °F 43% 29.93 in 10.0 mi SW 5.8 mph - N/A   Overcast
1:53 AM 39.9 °F 34.5 °F 21.9 °F 49% 29.93 in 10.0 mi SSW 8.1 mph - N/A   Overcast
2:53 AM 33.1 °F - 21.9 °F 64% 29.91 in 10.0 mi Calm Calm - N/A   Scattered Clouds
3:53 AM 37.0 °F - 23.0 °F 57% 29.91 in 10.0 mi Calm Calm - N/A   Scattered Clouds
4:53 AM 30.0 °F 22.4 °F 21.9 °F 72% 29.91 in 10.0 mi SSE 8.1 mph - N/A   Clear
5:53 AM 33.1 °F 27.7 °F 21.0 °F 61% 29.92 in 10.0 mi SSE 5.8 mph - N/A   Partly Cloudy
6:53 AM 32.0 °F 26.4 °F 21.0 °F 64% 29.92 in 10.0 mi SSE 5.8 mph - N/A   Partly Cloudy
7:53 AM 34.0 °F 28.8 °F 24.1 °F 67% 29.94 in 10.0 mi South 5.8 mph - N/A   Scattered Clouds
8:53 AM 43.0 °F - 25.0 °F 49% 29.95 in 10.0 mi Calm Calm - N/A   Scattered Clouds
9:53 AM 48.0 °F - 28.0 °F 46% 29.94 in 10.0 mi NNE 5.8 mph - N/A   Mostly Cloudy
10:53 AM 48.0 °F - 27.0 °F 44% 29.95 in 10.0 mi NNE 8.1 mph - N/A   Mostly Cloudy
11:53 AM 51.1 °F - 28.0 °F 41% 29.94 in 10.0 mi NNE 11.5 mph - N/A   Mostly Cloudy
12:53 PM 52.0 °F - 28.9 °F 41% 29.92 in 10.0 mi NE 11.5 mph - N/A   Scattered Clouds
1:53 PM 52.0 °F - 28.0 °F 40% 29.91 in 10.0 mi NE 10.4 mph - N/A   Scattered Clouds
2:53 PM 52.0 °F - 28.0 °F 40% 29.92 in 10.0 mi NE 16.1 mph - N/A   Mostly Cloudy
3:53 PM 48.9 °F - 34.0 °F 56% 29.94 in 10.0 mi NNE 17.3 mph - N/A   Partly Cloudy
4:53 PM 44.1 °F 35.7 °F 30.0 °F 58% 29.97 in 10.0 mi NNE 20.7 mph - N/A   Partly Cloudy
5:53 PM 41.0 °F 32.5 °F 28.0 °F 60% 30.00 in 10.0 mi NNE 17.3 mph - N/A   Mostly Cloudy
6:53 PM 37.0 °F 27.7 °F 25.0 °F 62% 30.03 in 10.0 mi NNE 16.1 mph - N/A   Mostly Cloudy
7:53 PM 36.0 °F 27.1 °F 24.1 °F 62% 30.04 in 10.0 mi NE 13.8 mph - N/A   Mostly Cloudy
8:53 PM 34.0 °F 25.5 °F 23.0 °F 64% 30.06 in 10.0 mi NE 11.5 mph - N/A   Mostly Cloudy
9:53 PM 32.0 °F 22.5 °F 23.0 °F 69% 30.06 in 10.0 mi NE 12.7 mph - N/A   Clear
10:53 PM 30.0 °F 20.5 °F 21.9 °F 72% 30.10 in 10.0 mi NNE 11.5 mph - N/A   Clear
11:53 PM 28.9 °F 17.7 °F 18.0 °F 64% 30.12 in 10.0 mi NNE 15.0 mph - N/A   Clear